QPF
0.00 0.00 0.00 0.00 0.00 0.00 0.00 0.01 0.02 0.01 0.01 0.01 0.01 0.01 0.00 0.00 0.01 0.01 0.01 0.01 0.00 0.00 0.01 0.01 0.02 0.03 0.01 0.01 0.01 0.00 0.00 0.00 0.01 0.01 0.01 0.01 0.02 0.03 0.03 0.02 0.03 0.04 0.06 0.06 0.06 0.06 0.05 0.08 0.09
0.00 0.00 0.00 0.00 0.00 0.00 0.01 0.01 0.01 0.01 0.01 0.01 0.00 0.00 0.00 0.00 0.01 0.01 0.01 0.01 0.00 0.00 0.01 0.02 0.02 0.02 0.01 0.01 0.01 0.01 0.00 0.00 0.01 0.01 0.01 0.01 0.02 0.03 0.03 0.03 0.03 0.04 0.05 0.05 0.05 0.04 0.03 0.05 0.07
0.00 0.00 0.00 0.00 0.00 0.00 0.01 0.01 0.01 0.02 0.01 0.01 0.00 0.00 0.00 0.01 0.01 0.01 0.01 0.01 0.00 0.01 0.01 0.02 0.02 0.02 0.02 0.01 0.01 0.01 0.00 0.00 0.01 0.01 0.00 0.01 0.03 0.03 0.03 0.03 0.03 0.04 0.07 0.05 0.05 0.04 0.03 0.05 0.05
0.00 0.00 0.00 0.00 0.00 0.00 0.00 0.01 0.01 0.02 0.01 0.00 0.00 0.00 0.01 0.01 0.01 0.02 0.02 0.02 0.01 0.00 0.01 0.02 0.02 0.03 0.03 0.02 0.02 0.01 0.01 0.01 0.01 0.01 0.01 0.02 0.01 0.02 0.02 0.04 0.06 0.07 0.11 0.08 0.06 0.04 0.04 0.05 0.05
0.00 0.00 0.00 0.00 0.00 0.00 0.00 0.00 0.01 0.01 0.01 0.00 0.00 0.00 0.01 0.02 0.01 0.02 0.02 0.02 0.02 0.01 0.00 0.01 0.03 0.03 0.03 0.03 0.03 0.03 0.01 0.01 0.01 0.01 0.02 0.02 0.01 0.01 0.01 0.07 0.16 0.17 0.16 0.12 0.07 0.04 0.04 0.05 0.04
0.00 0.00 0.00 0.00 0.00 0.00 0.00 0.01 0.01 0.01 0.01 0.01 0.01 0.00 0.01 0.02 0.01 0.02 0.02 0.01 0.02 0.02 0.01 0.01 0.01 0.03 0.04 0.03 0.03 0.03 0.02 0.01 0.01 0.01 0.02 0.00 0.01 0.02 0.02 0.07 0.15 0.18 0.16 0.11 0.06 0.05 0.04 0.04 0.04
0.00 0.00 0.00 0.00 0.00 0.00 0.00 0.00 0.01 0.02 0.02 0.01 0.01 0.01 0.01 0.02 0.01 0.02 0.02 0.01 0.01 0.01 0.01 0.01 0.01 0.01 0.03 0.04 0.03 0.02 0.02 0.02 0.01 0.01 0.01 0.01 0.01 0.02 0.03 0.06 0.11 0.13 0.11 0.08 0.06 0.05 0.04 0.03 0.05
0.00 0.00 0.00 0.00 0.00 0.00 0.00 0.00 0.02 0.05 0.04 0.01 0.01 0.02 0.01 0.01 0.01 0.01 0.01 0.01 0.01 0.01 0.00 0.00 0.01 0.02 0.02 0.02 0.02 0.02 0.02 0.02 0.03 0.02 0.01 0.01 0.01 0.03 0.04 0.05 0.09 0.10 0.08 0.06 0.06 0.05 0.05 0.04 0.05
0.00 0.00 0.00 0.00 0.00 0.00 0.00 0.00 0.02 0.05 0.03 0.01 0.01 0.01 0.01 0.01 0.01 0.01 0.01 0.01 0.01 0.01 0.00 0.00 0.01 0.02 0.02 0.02 0.02 0.02 0.02 0.02 0.02 0.02 0.02 0.01 0.01 0.02 0.03 0.05 0.09 0.10 0.08 0.06 0.05 0.05 0.05 0.06 0.06
0.00 0.00 0.00 0.00 0.00 0.00 0.00 0.00 0.01 0.02 0.02 0.01 0.00 0.00 0.00 0.01 0.01 0.01 0.01 0.01 0.01 0.01 0.01 0.00 0.01 0.01 0.01 0.01 0.02 0.01 0.02 0.02 0.02 0.02 0.02 0.01 0.00 0.01 0.03 0.07 0.10 0.10 0.09 0.08 0.08 0.08 0.07 0.07 0.07
0.00 0.00 0.00 0.00 0.00 0.00 0.00 0.00 0.00 0.00 0.01 0.01 0.00 0.00 0.00 0.01 0.01 0.01 0.01 0.00 0.01 0.01 0.01 0.01 0.01 0.01 0.01 0.02 0.02 0.02 0.02 0.02 0.02 0.01 0.01 0.01 0.00 0.01 0.03 0.05 0.07 0.06 0.06 0.06 0.06 0.07 0.07 0.07 0.08
0.00 0.00 0.00 0.00 0.00 0.00 0.00 0.00 0.00 0.00 0.00 0.00 0.00 0.00 0.00 0.00 0.01 0.01 0.01 0.01 0.01 0.01 0.01 0.01 0.01 0.01 0.01 0.01 0.03 0.02 0.01 0.02 0.02 0.02 0.01 0.01 0.01 0.01 0.02 0.04 0.05 0.05 0.06 0.06 0.05 0.05 0.06 0.05 0.07
0.00 0.00 0.00 0.00 0.00 0.00 0.00 0.00 0.00 0.00 0.00 0.00 0.00 0.00 0.00 0.00 0.01 0.01 0.01 0.01 0.01 0.02 0.02 0.02 0.01 0.01 0.01 0.01 0.03 0.03 0.01 0.01 0.01 0.02 0.01 0.02 0.02 0.01 0.01 0.03 0.05 0.06 0.06 0.07 0.07 0.06 0.06 0.06 0.07
0.00 0.00 0.00 0.00 0.00 0.00 0.00 0.00 0.00 0.00 0.00 0.00 0.00 0.01 0.01 0.01 0.01 0.01 0.02 0.02 0.02 0.03 0.05 0.04 0.02 0.02 0.01 0.02 0.03 0.05 0.04 0.01 0.00 0.01 0.01 0.02 0.02 0.02 0.02 0.03 0.05 0.06 0.07 0.08 0.07 0.07 0.06 0.07 0.08
0.00 0.00 0.00 0.00 0.01 0.01 0.00 0.00 0.00 0.00 0.00 0.00 0.01 0.01 0.01 0.02 0.02 0.02 0.03 0.03 0.03 0.04 0.07 0.07 0.04 0.02 0.02 0.02 0.02 0.03 0.04 0.02 0.01 0.00 0.01 0.01 0.01 0.02 0.03 0.02 0.04 0.05 0.07 0.07 0.06 0.06 0.06 0.08 0.09
0.00 0.00 0.00 0.00 0.00 0.01 0.00 0.00 0.00 0.00 0.00 0.00 0.01 0.01 0.01 0.03 0.03 0.03 0.03 0.03 0.05 0.06 0.09 0.08 0.05 0.04 0.03 0.03 0.03 0.03 0.03 0.02 0.01 0.01 0.01 0.01 0.01 0.02 0.03 0.02 0.03 0.05 0.06 0.06 0.06 0.07 0.08 0.09 0.08
0.00 0.00 0.00 0.00 0.00 0.00 0.00 0.00 0.00 0.01 0.01 0.01 0.01 0.01 0.01 0.03 0.04 0.03 0.03 0.04 0.07 0.08 0.08 0.08 0.08 0.07 0.06 0.05 0.04 0.03 0.04 0.03 0.02 0.02 0.02 0.01 0.01 0.00 0.01 0.01 0.02 0.03 0.06 0.06 0.04 0.05 0.06 0.08 0.07
0.00 0.00 0.00 0.00 0.00 0.00 0.00 0.00 0.01 0.01 0.01 0.01 0.01 0.02 0.03 0.03 0.03 0.04 0.04 0.06 0.09 0.08 0.06 0.08 0.06 0.06 0.06 0.05 0.04 0.04 0.03 0.03 0.02 0.02 0.03 0.02 0.01 0.01 0.00 0.01 0.01 0.03 0.05 0.05 0.04 0.03 0.05 0.06 0.07
0.00 0.00 0.00 0.00 0.00 0.00 0.00 0.00 0.02 0.02 0.02 0.01 0.02 0.02 0.04 0.03 0.04 0.04 0.03 0.05 0.07 0.08 0.06 0.06 0.06 0.05 0.05 0.04 0.03 0.03 0.03 0.02 0.03 0.03 0.03 0.03 0.03 0.02 0.01 0.01 0.01 0.03 0.04 0.04 0.04 0.04 0.06 0.05 0.06
0.00 0.00 0.00 0.00 0.00 0.00 0.00 0.00 0.01 0.01 0.01 0.02 0.03 0.03 0.03 0.03 0.04 0.04 0.04 0.06 0.07 0.08 0.08 0.07 0.06 0.05 0.03 0.03 0.03 0.04 0.04 0.03 0.03 0.03 0.03 0.04 0.03 0.04 0.03 0.02 0.01 0.04 0.05 0.04 0.04 0.04 0.05 0.04 0.04
0.00 0.00 0.00 0.00 0.00 0.00 0.00 0.00 0.01 0.01 0.01 0.02 0.03 0.03 0.03 0.03 0.04 0.05 0.05 0.07 0.07 0.10 0.12 0.10 0.06 0.04 0.03 0.03 0.03 0.04 0.05 0.04 0.03 0.02 0.03 0.04 0.04 0.03 0.03 0.03 0.03 0.05 0.05 0.03 0.03 0.03 0.05 0.05 0.04
0.00 0.00 0.00 0.00 0.00 0.00 0.00 0.00 0.01 0.01 0.02 0.02 0.03 0.03 0.03 0.03 0.04 0.06 0.06 0.08 0.10 0.10 0.11 0.09 0.05 0.04 0.03 0.03 0.03 0.04 0.04 0.04 0.03 0.02 0.03 0.03 0.04 0.04 0.04 0.03 0.04 0.05 0.05 0.03 0.02 0.03 0.04 0.04 0.04
0.00 0.00 0.00 0.00 0.00 0.00 0.00 0.00 0.00 0.01 0.01 0.01 0.02 0.02 0.03 0.04 0.05 0.06 0.05 0.05 0.05 0.06 0.05 0.04 0.04 0.04 0.03 0.02 0.03 0.03 0.03 0.03 0.02 0.02 0.02 0.03 0.04 0.05 0.06 0.05 0.05 0.06 0.06 0.05 0.03 0.03 0.04 0.04 0.04
0.00 0.00 0.00 0.00 0.00 0.00 0.00 0.00 0.00 0.00 0.00 0.00 0.01 0.01 0.02 0.03 0.03 0.04 0.04 0.04 0.04 0.04 0.04 0.05 0.04 0.04 0.02 0.02 0.02 0.02 0.02 0.02 0.02 0.02 0.03 0.03 0.03 0.04 0.06 0.08 0.08 0.07 0.07 0.06 0.04 0.04 0.03 0.04 0.04
0.00 0.00 0.00 0.00 0.00 0.00 0.00 0.00 0.00 0.00 0.00 0.00 0.01 0.01 0.02 0.03 0.03 0.05 0.05 0.05 0.06 0.06 0.05 0.07 0.06 0.05 0.03 0.02 0.02 0.02 0.01 0.01 0.02 0.03 0.04 0.04 0.04 0.04 0.07 0.09 0.09 0.10 0.08 0.06 0.05 0.04 0.03 0.03 0.03
0.01 0.01 0.02 0.01 0.00 0.00 0.00 0.00 0.00 0.01 0.01 0.01 0.01 0.01 0.01 0.01 0.02 0.05 0.07 0.08 0.09 0.11 0.09 0.07 0.05 0.04 0.03 0.02 0.02 0.01 0.01 0.01 0.01 0.02 0.03 0.04 0.04 0.05 0.06 0.08 0.09 0.11 0.10 0.07 0.06 0.04 0.04 0.04 0.02
0.00 0.00 0.00 0.01 0.01 0.00 0.01 0.00 0.01 0.01 0.01 0.01 0.00 0.00 0.00 0.01 0.03 0.07 0.09 0.10 0.12 0.13 0.10 0.11 0.08 0.06 0.03 0.02 0.01 0.02 0.02 0.02 0.01 0.01 0.02 0.04 0.05 0.08 0.08 0.07 0.07 0.10 0.10 0.08 0.07 0.05 0.04 0.04 0.03
0.00 0.00 0.00 0.01 0.01 0.01 0.01 0.01 0.01 0.01 0.01 0.00 0.00 0.00 0.01 0.03 0.05 0.08 0.11 0.10 0.12 0.10 0.07 0.06 0.06 0.05 0.04 0.03 0.03 0.02 0.02 0.02 0.02 0.01 0.02 0.04 0.05 0.08 0.11 0.10 0.08 0.08 0.07 0.07 0.06 0.05 0.04 0.03 0.04
0.01 0.00 0.00 0.00 0.01 0.00 0.01 0.01 0.01 0.01 0.01 0.01 0.01 0.01 0.02 0.03 0.05 0.06 0.07 0.07 0.09 0.06 0.04 0.04 0.04 0.03 0.03 0.02 0.01 0.01 0.01 0.01 0.02 0.02 0.02 0.03 0.04 0.06 0.07 0.09 0.08 0.06 0.04 0.05 0.06 0.05 0.04 0.03 0.03
0.01 0.01 0.00 0.00 0.00 0.00 0.00 0.01 0.01 0.01 0.01 0.01 0.01 0.01 0.01 0.02 0.02 0.03 0.07 0.09 0.06 0.04 0.04 0.04 0.03 0.03 0.03 0.02 0.01 0.01 0.01 0.01 0.02 0.02 0.02 0.03 0.03 0.03 0.04 0.04 0.03 0.03 0.03 0.04 0.05 0.05 0.04 0.04 0.03
MSLP
1007.19 1008.20 1009.25 1010.15 1010.74 1010.92 1010.70 1010.16 1009.44 1008.72 1008.15 1007.79 1007.66 1007.67 1007.70 1007.64 1007.38 1006.89 1006.20 1005.43 1004.69 1004.13 1003.82 1003.80 1004.03 1004.43 1004.86 1005.24 1005.49 1005.60 1005.60 1005.56 1005.55 1005.64 1005.84 1006.14 1006.49 1006.82 1007.08 1007.23 1007.29 1007.29 1007.31 1007.41 1007.63 1008.00 1008.50 1009.10 1009.72
1007.44 1008.59 1009.72 1010.61 1011.10 1011.12 1010.69 1009.90 1008.93 1007.97 1007.17 1006.62 1006.32 1006.21 1006.18 1006.10 1005.87 1005.47 1004.93 1004.34 1003.82 1003.47 1003.36 1003.50 1003.85 1004.32 1004.79 1005.18 1005.44 1005.55 1005.57 1005.56 1005.60 1005.73 1005.96 1006.27 1006.61 1006.91 1007.11 1007.21 1007.22 1007.19 1007.20 1007.30 1007.53 1007.93 1008.45 1009.07 1009.71
1007.75 1009.01 1010.16 1011.01 1011.40 1011.26 1010.64 1009.65 1008.48 1007.32 1006.33 1005.60 1005.14 1004.90 1004.78 1004.66 1004.45 1004.14 1003.76 1003.37 1003.07 1002.95 1003.05 1003.36 1003.84 1004.38 1004.89 1005.29 1005.54 1005.66 1005.68 1005.69 1005.74 1005.88 1006.11 1006.39 1006.69 1006.93 1007.07 1007.12 1007.08 1007.03 1007.03 1007.14 1007.40 1007.82 1008.38 1009.01 1009.68
1008.13 1009.43 1010.57 1011.34 1011.62 1011.35 1010.58 1009.45 1008.14 1006.84 1005.71 1004.85 1004.26 1003.90 1003.69 1003.54 1003.36 1003.14 1002.90 1002.71 1002.63 1002.73 1003.03 1003.50 1004.09 1004.68 1005.21 1005.59 1005.82 1005.91 1005.92 1005.91 1005.94 1006.06 1006.25 1006.48 1006.71 1006.88 1006.97 1006.96 1006.90 1006.85 1006.86 1007.00 1007.29 1007.74 1008.32 1008.98 1009.66
1008.57 1009.85 1010.91 1011.59 1011.75 1011.37 1010.51 1009.30 1007.92 1006.56 1005.37 1004.42 1003.76 1003.32 1003.06 1002.88 1002.74 1002.61 1002.51 1002.50 1002.62 1002.91 1003.37 1003.96 1004.60 1005.21 1005.71 1006.06 1006.24 1006.29 1006.25 1006.19 1006.18 1006.24 1006.37 1006.53 1006.68 1006.79 1006.82 1006.79 1006.72 1006.68 1006.73 1006.91 1007.24 1007.72 1008.32 1009.00 1009.69
1009.00 1010.20 1011.15 1011.70 1011.74 1011.27 1010.37 1009.14 1007.77 1006.43 1005.24 1004.29 1003.61 1003.15 1002.87 1002.71 1002.62 1002.60 1002.64 1002.78 1003.06 1003.48 1004.04 1004.67 1005.32 1005.90 1006.34 1006.62 1006.73 1006.71 1006.61 1006.50 1006.43 1006.42 1006.47 1006.55 1006.62 1006.66 1006.65 1006.60 1006.55 1006.55 1006.65 1006.88 1007.25 1007.77 1008.38 1009.07 1009.77
1009.37 1010.44 1011.23 1011.62 1011.55 1011.01 1010.09 1008.90 1007.60 1006.34 1005.23 1004.34 1003.70 1003.28 1003.05 1002.94 1002.94 1003.01 1003.18 1003.44 1003.82 1004.32 1004.90 1005.52 1006.10 1006.60 1006.95 1007.14 1007.18 1007.10 1006.95 1006.80 1006.67 1006.59 1006.56 1006.55 1006.55 1006.52 1006.48 1006.43 1006.40 1006.45 1006.61 1006.90 1007.32 1007.86 1008.50 1009.18 1009.88
1009.60 1010.50 1011.10 1011.33 1011.14 1010.55 1009.63 1008.51 1007.31 1006.17 1005.18 1004.41 1003.86 1003.54 1003.39 1003.38 1003.47 1003.66 1003.92 1004.27 1004.70 1005.20 1005.74 1006.29 1006.77 1007.16 1007.41 1007.53 1007.51 1007.40 1007.23 1007.05 1006.89 1006.76 1006.66 1006.57 1006.49 1006.40 1006.31 1006.26 1006.27 1006.37 1006.59 1006.94 1007.41 1007.98 1008.63 1009.31 1010.00
1009.68 1010.37 1010.78 1010.83 1010.52 1009.88 1008.98 1007.94 1006.86 1005.85 1005.01 1004.37 1003.95 1003.74 1003.70 1003.80 1004.01 1004.30 1004.64 1005.04 1005.47 1005.93 1006.38 1006.80 1007.16 1007.43 1007.60 1007.67 1007.64 1007.55 1007.41 1007.26 1007.10 1006.94 1006.78 1006.62 1006.45 1006.30 1006.18 1006.11 1006.14 1006.29 1006.57 1006.98 1007.51 1008.12 1008.78 1009.46 1010.15
1009.60 1010.08 1010.28 1010.17 1009.74 1009.06 1008.18 1007.21 1006.24 1005.37 1004.65 1004.14 1003.85 1003.76 1003.84 1004.06 1004.38 1004.75 1005.15 1005.55 1005.95 1006.31 1006.65 1006.93 1007.17 1007.34 1007.46 1007.52 1007.54 1007.53 1007.48 1007.40 1007.28 1007.12 1006.93 1006.70 1006.46 1006.24 1006.07 1005.99 1006.03 1006.22 1006.56 1007.03 1007.61 1008.26 1008.94 1009.64 1010.33
1009.42 1009.70 1009.71 1009.44 1008.91 1008.19 1007.33 1006.42 1005.54 1004.77 1004.16 1003.76 1003.56 1003.57 1003.75 1004.06 1004.46 1004.90 1005.32 1005.71 1006.03 1006.30 1006.50 1006.65 1006.77 1006.88 1006.99 1007.11 1007.23 1007.35 1007.44 1007.47 1007.43 1007.31 1007.09 1006.82 1006.51 1006.22 1005.99 1005.89 1005.95 1006.17 1006.56 1007.09 1007.73 1008.42 1009.15 1009.87 1010.57
1009.22 1009.32 1009.16 1008.76 1008.16 1007.41 1006.57 1005.71 1004.90 1004.19 1003.64 1003.29 1003.16 1003.22 1003.46 1003.84 1004.29 1004.75 1005.17 1005.52 1005.76 1005.91 1005.99 1006.02 1006.06 1006.14 1006.29 1006.50 1006.77 1007.06 1007.31 1007.49 1007.55 1007.46 1007.25 1006.93 1006.56 1006.21 1005.94 1005.82 1005.89 1006.15 1006.59 1007.18 1007.88 1008.63 1009.41 1010.16 1010.89
1009.08 1009.02 1008.73 1008.25 1007.61 1006.85 1006.04 1005.22 1004.44 1003.77 1003.24 1002.90 1002.77 1002.84 1003.10 1003.49 1003.95 1004.41 1004.80 1005.09 1005.25 1005.30 1005.27 1005.22 1005.22 1005.30 1005.51 1005.84 1006.26 1006.72 1007.14 1007.46 1007.61 1007.57 1007.36 1007.01 1006.59 1006.19 1005.89 1005.77 1005.85 1006.15 1006.65 1007.31 1008.07 1008.90 1009.73 1010.54 1011.31
1009.05 1008.88 1008.51 1007.98 1007.34 1006.62 1005.85 1005.07 1004.32 1003.65 1003.10 1002.73 1002.55 1002.58 1002.80 1003.17 1003.60 1004.03 1004.39 1004.62 1004.72 1004.69 1004.58 1004.48 1004.45 1004.56 1004.84 1005.28 1005.83 1006.43 1006.99 1007.41 1007.62 1007.61 1007.39 1007.01 1006.56 1006.14 1005.83 1005.71 1005.83 1006.18 1006.74 1007.47 1008.30 1009.19 1010.09 1010.96 1011.79
1009.15 1008.90 1008.50 1007.98 1007.39 1006.73 1006.03 1005.30 1004.57 1003.89 1003.30 1002.86 1002.61 1002.57 1002.72 1003.02 1003.41 1003.80 1004.12 1004.31 1004.35 1004.28 1004.14 1004.01 1003.98 1004.12 1004.45 1004.97 1005.61 1006.29 1006.91 1007.37 1007.60 1007.58 1007.34 1006.93 1006.46 1006.02 1005.72 1005.64 1005.80 1006.21 1006.84 1007.63 1008.54 1009.49 1010.46 1011.39 1012.29
1009.32 1009.04 1008.66 1008.21 1007.70 1007.15 1006.55 1005.89 1005.19 1004.50 1003.86 1003.34 1003.00 1002.86 1002.92 1003.15 1003.48 1003.83 1004.12 1004.29 1004.32 1004.23 1004.08 1003.96 1003.95 1004.11 1004.47 1005.01 1005.67 1006.36 1006.96 1007.39 1007.58 1007.50 1007.21 1006.76 1006.27 1005.85 1005.58 1005.54 1005.76 1006.24 1006.93 1007.78 1008.74 1009.75 1010.77 1011.76 1012.72
1009.51 1009.25 1008.93 1008.58 1008.21 1007.80 1007.32 1006.74 1006.09 1005.39 1004.71 1004.11 1003.66 1003.42 1003.39 1003.55 1003.84 1004.16 1004.44 1004.62 1004.67 1004.61 1004.49 1004.40 1004.41 1004.58 1004.94 1005.45 1006.06 1006.68 1007.19 1007.51 1007.59 1007.42 1007.05 1006.56 1006.06 1005.65 1005.42 1005.43 1005.72 1006.25 1006.99 1007.88 1008.87 1009.92 1010.97 1012.02 1013.04
1009.66 1009.44 1009.23 1009.03 1008.82 1008.57 1008.23 1007.75 1007.15 1006.46 1005.73 1005.06 1004.52 1004.19 1004.08 1004.17 1004.42 1004.73 1005.03 1005.25 1005.35 1005.35 1005.30 1005.26 1005.30 1005.48 1005.80 1006.25 1006.76 1007.24 1007.61 1007.77 1007.70 1007.40 1006.94 1006.39 1005.87 1005.47 1005.28 1005.36 1005.69 1006.27 1007.04 1007.95 1008.95 1009.99 1011.06 1012.14 1013.21
1009.72 1009.59 1009.51 1009.48 1009.46 1009.38 1009.18 1008.81 1008.26 1007.57 1006.80 1006.07 1005.46 1005.04 1004.86 1004.90 1005.13 1005.45 1005.78 1006.06 1006.24 1006.33 1006.36 1006.39 1006.47 1006.65 1006.94 1007.30 1007.68 1008.00 1008.18 1008.16 1007.92 1007.49 1006.92 1006.32 1005.78 1005.40 1005.24 1005.36 1005.73 1006.33 1007.11 1008.01 1008.99 1010.01 1011.06 1012.14 1013.23
1009.69 1009.68 1009.77 1009.92 1010.08 1010.17 1010.10 1009.82 1009.31 1008.62 1007.83 1007.04 1006.36 1005.87 1005.63 1005.63 1005.84 1006.17 1006.55 1006.89 1007.17 1007.35 1007.48 1007.58 1007.72 1007.91 1008.16 1008.44 1008.70 1008.86 1008.87 1008.68 1008.28 1007.71 1007.06 1006.40 1005.85 1005.48 1005.36 1005.50 1005.90 1006.50 1007.26 1008.12 1009.05 1010.02 1011.03 1012.07 1013.15
1009.64 1009.77 1010.03 1010.36 1010.69 1010.92 1010.96 1010.75 1010.28 1009.58 1008.75 1007.90 1007.15 1006.60 1006.30 1006.27 1006.45 1006.79 1007.20 1007.60 1007.95 1008.22 1008.44 1008.62 1008.81 1009.03 1009.27 1009.49 1009.66 1009.71 1009.58 1009.26 1008.74 1008.09 1007.37 1006.69 1006.13 1005.78 1005.67 1005.83 1006.23 1006.82 1007.54 1008.35 1009.21 1010.11 1011.05 1012.03 1013.07
1009.65 1009.93 1010.36 1010.86 1011.33 1011.67 1011.79 1011.62 1011.15 1010.42 1009.55 1008.64 1007.83 1007.22 1006.86 1006.77 1006.92 1007.24 1007.65 1008.07 1008.46 1008.80 1009.08 1009.34 1009.58 1009.83 1010.08 1010.29 1010.42 1010.41 1010.22 1009.84 1009.27 1008.58 1007.85 1007.16 1006.62 1006.28 1006.19 1006.36 1006.75 1007.31 1007.99 1008.74 1009.53 1010.34 1011.19 1012.09 1013.06
1009.81 1010.24 1010.82 1011.45 1012.03 1012.45 1012.60 1012.44 1011.95 1011.18 1010.26 1009.30 1008.42 1007.74 1007.31 1007.16 1007.25 1007.51 1007.88 1008.29 1008.68 1009.03 1009.34 1009.64 1009.93 1010.22 1010.50 1010.74 1010.89 1010.89 1010.71 1010.34 1009.79 1009.12 1008.42 1007.78 1007.27 1006.96 1006.89 1007.06 1007.44 1007.98 1008.61 1009.30 1010.02 1010.75 1011.51 1012.31 1013.18
1010.19 1010.75 1011.44 1012.17 1012.82 1013.27 1013.42 1013.24 1012.71 1011.90 1010.93 1009.91 1008.98 1008.23 1007.73 1007.49 1007.49 1007.67 1007.96 1008.29 1008.62 1008.94 1009.24 1009.54 1009.86 1010.20 1010.53 1010.82 1011.03 1011.10 1011.00 1010.70 1010.24 1009.66 1009.03 1008.46 1008.01 1007.74 1007.70 1007.88 1008.26 1008.77 1009.37 1010.01 1010.67 1011.33 1012.00 1012.70 1013.46
1010.81 1011.46 1012.22 1013.00 1013.67 1014.11 1014.24 1014.01 1013.44 1012.59 1011.58 1010.52 1009.55 1008.75 1008.18 1007.85 1007.74 1007.80 1007.96 1008.18 1008.41 1008.64 1008.89 1009.16 1009.47 1009.83 1010.22 1010.58 1010.88 1011.06 1011.08 1010.91 1010.58 1010.13 1009.62 1009.14 1008.77 1008.56 1008.55 1008.75 1009.12 1009.62 1010.19 1010.80 1011.42 1012.02 1012.62 1013.23 1013.88
1011.61 1012.31 1013.10 1013.88 1014.52 1014.92 1015.00 1014.73 1014.12 1013.25 1012.22 1011.16 1010.16 1009.33 1008.70 1008.29 1008.06 1007.99 1008.01 1008.07 1008.16 1008.27 1008.42 1008.63 1008.92 1009.28 1009.70 1010.13 1010.53 1010.83 1010.99 1010.98 1010.80 1010.50 1010.13 1009.77 1009.49 1009.35 1009.38 1009.59 1009.96 1010.45 1011.02 1011.61 1012.20 1012.76 1013.30 1013.84 1014.38
1012.53 1013.23 1014.00 1014.73 1015.30 1015.64 1015.66 1015.34 1014.72 1013.85 1012.85 1011.81 1010.83 1009.99 1009.33 1008.85 1008.53 1008.32 1008.18 1008.09 1008.02 1007.99 1008.02 1008.13 1008.35 1008.69 1009.12 1009.61 1010.08 1010.50 1010.79 1010.93 1010.91 1010.77 1010.54 1010.31 1010.12 1010.05 1010.13 1010.36 1010.74 1011.23 1011.78 1012.36 1012.93 1013.47 1013.97 1014.44 1014.90
1013.45 1014.10 1014.80 1015.44 1015.93 1016.19 1016.15 1015.81 1015.19 1014.37 1013.42 1012.45 1011.53 1010.73 1010.06 1009.54 1009.14 1008.82 1008.55 1008.30 1008.08 1007.90 1007.79 1007.80 1007.94 1008.23 1008.64 1009.14 1009.66 1010.15 1010.55 1010.82 1010.95 1010.95 1010.86 1010.75 1010.66 1010.66 1010.78 1011.04 1011.43 1011.91 1012.46 1013.02 1013.58 1014.09 1014.56 1014.98 1015.37
1014.28 1014.85 1015.44 1015.97 1016.35 1016.52 1016.43 1016.09 1015.51 1014.76 1013.91 1013.05 1012.23 1011.50 1010.87 1010.35 1009.90 1009.50 1009.11 1008.74 1008.38 1008.07 1007.84 1007.73 1007.78 1007.99 1008.34 1008.82 1009.34 1009.87 1010.34 1010.70 1010.94 1011.06 1011.11 1011.11 1011.12 1011.19 1011.36 1011.64 1012.03 1012.51 1013.03 1013.58 1014.11 1014.60 1015.04 1015.42 1015.76
1014.94 1015.40 1015.87 1016.27 1016.54 1016.64 1016.52 1016.19 1015.68 1015.04 1014.32 1013.59 1012.90 1012.27 1011.71 1011.21 1010.75 1010.30 1009.84 1009.37 1008.91 1008.49 1008.15 1007.93 1007.88 1007.99 1008.27 1008.68 1009.17 1009.69 1010.18 1010.59 1010.92 1011.14 1011.30 1011.41 1011.52 1011.66 1011.89 1012.19 1012.58 1013.04 1013.54 1014.06 1014.55 1015.00 1015.40 1015.74 1016.04
Thickness
5817 5815 5811 5802 5783 5761 5758 5772 5782 5785 5789 5797 5799 5794 5785 5778 5771 5768 5788 5795 5793 5789 5785 5781 5778 5776 5774 5772 5771 5769 5768 5767 5766 5765 5765 5764 5763 5762 5762 5761 5761 5761 5761 5761 5760 5760 5759 5759 5758
5816 5813 5805 5791 5766 5746 5756 5776 5781 5787 5796 5801 5800 5794 5786 5782 5788 5787 5790 5793 5792 5788 5784 5781 5778 5775 5773 5771 5769 5768 5767 5766 5765 5764 5762 5761 5761 5760 5760 5759 5759 5759 5759 5758 5758 5758 5757 5756 5756
5816 5812 5794 5776 5759 5751 5764 5782 5786 5795 5802 5801 5794 5793 5787 5783 5788 5789 5793 5793 5790 5786 5783 5780 5777 5774 5772 5769 5768 5766 5765 5764 5763 5762 5761 5760 5759 5758 5757 5757 5757 5757 5757 5756 5756 5755 5755 5754 5753
5812 5799 5786 5768 5763 5768 5777 5787 5793 5793 5798 5801 5793 5785 5788 5795 5794 5794 5795 5792 5788 5784 5781 5778 5776 5773 5770 5768 5767 5765 5763 5762 5761 5759 5758 5758 5757 5756 5755 5755 5756 5756 5755 5754 5754 5753 5753 5752 5752
5805 5788 5770 5755 5764 5776 5787 5794 5796 5791 5791 5795 5791 5780 5780 5793 5797 5796 5793 5790 5785 5782 5779 5777 5774 5771 5769 5767 5765 5763 5762 5760 5759 5757 5757 5756 5755 5754 5754 5754 5756 5756 5755 5753 5752 5751 5750 5750 5749
5788 5777 5754 5749 5763 5778 5789 5797 5796 5792 5790 5792 5788 5778 5777 5790 5792 5791 5791 5787 5784 5781 5778 5775 5772 5770 5767 5765 5763 5761 5760 5758 5757 5756 5755 5754 5753 5752 5752 5754 5755 5756 5755 5752 5751 5749 5748 5748 5747
5781 5767 5757 5760 5763 5774 5789 5798 5793 5789 5787 5789 5791 5776 5777 5785 5790 5791 5788 5785 5781 5779 5775 5773 5770 5767 5765 5764 5761 5759 5758 5757 5755 5754 5753 5751 5751 5750 5751 5752 5754 5754 5753 5751 5749 5747 5746 5745 5745
5788 5769 5761 5758 5764 5772 5791 5795 5797 5793 5790 5798 5795 5777 5774 5784 5789 5788 5784 5781 5778 5775 5773 5770 5768 5765 5764 5762 5760 5758 5756 5754 5753 5752 5750 5749 5748 5748 5749 5750 5750 5750 5750 5749 5748 5746 5745 5744 5743
5791 5762 5752 5761 5767 5776 5790 5790 5794 5800 5796 5795 5796 5792 5792 5792 5788 5782 5777 5774 5772 5771 5769 5768 5766 5764 5762 5760 5758 5756 5753 5752 5751 5749 5748 5747 5746 5746 5746 5747 5747 5747 5747 5746 5745 5744 5742 5742 5741
5778 5756 5764 5778 5782 5784 5787 5788 5790 5790 5787 5787 5788 5792 5794 5789 5783 5778 5773 5769 5768 5767 5767 5765 5764 5762 5760 5759 5757 5754 5752 5750 5749 5747 5746 5744 5744 5744 5744 5744 5744 5744 5743 5743 5742 5741 5739 5739 5738
5778 5768 5777 5785 5790 5790 5786 5788 5793 5785 5778 5786 5786 5787 5788 5784 5779 5775 5773 5770 5769 5768 5766 5764 5763 5762 5760 5757 5755 5752 5750 5748 5747 5746 5744 5742 5742 5741 5741 5741 5740 5740 5740 5739 5738 5737 5736 5735 5735
5776 5779 5784 5788 5794 5790 5788 5788 5787 5787 5790 5800 5798 5794 5787 5781 5777 5774 5772 5770 5768 5766 5765 5764 5762 5761 5759 5757 5754 5751 5749 5747 5745 5744 5742 5740 5740 5739 5738 5737 5737 5736 5736 5735 5734 5733 5733 5732 5732
5774 5778 5786 5790 5790 5789 5789 5786 5786 5788 5797 5800 5796 5790 5784 5780 5777 5775 5773 5770 5767 5765 5764 5763 5761 5759 5757 5755 5752 5750 5747 5745 5743 5742 5740 5739 5738 5737 5736 5735 5734 5733 5732 5732 5731 5730 5730 5729 5729
5776 5779 5782 5786 5787 5789 5785 5784 5783 5787 5794 5791 5788 5784 5782 5778 5776 5772 5769 5767 5766 5764 5763 5762 5760 5758 5756 5754 5751 5748 5746 5744 5742 5740 5739 5737 5736 5735 5733 5732 5731 5730 5729 5729 5728 5727 5726 5726 5725
5777 5772 5774 5780 5783 5784 5783 5772 5777 5786 5787 5783 5782 5780 5778 5776 5774 5771 5770 5768 5766 5764 5762 5760 5759 5757 5754 5752 5749 5746 5744 5742 5740 5739 5737 5736 5735 5733 5731 5729 5728 5728 5727 5726 5725 5724 5723 5723 5723
5768 5758 5751 5768 5776 5779 5772 5756 5774 5781 5779 5774 5776 5776 5774 5773 5772 5771 5769 5767 5766 5763 5761 5758 5758 5755 5752 5750 5747 5745 5743 5740 5738 5737 5736 5734 5733 5731 5729 5728 5726 5726 5724 5723 5722 5721 5720 5720 5719
5744 5737 5743 5755 5770 5770 5763 5754 5768 5775 5773 5769 5771 5772 5770 5768 5768 5767 5767 5766 5764 5762 5759 5755 5754 5752 5750 5747 5745 5742 5740 5738 5737 5736 5734 5733 5731 5729 5728 5726 5725 5723 5722 5721 5720 5719 5718 5716 5715
5733 5735 5739 5743 5758 5760 5752 5750 5762 5768 5768 5766 5767 5767 5765 5763 5763 5764 5764 5764 5762 5759 5756 5753 5751 5749 5747 5743 5741 5738 5736 5735 5734 5734 5733 5731 5729 5727 5726 5724 5723 5722 5720 5719 5718 5716 5715 5714 5713
5742 5737 5734 5743 5757 5752 5745 5745 5754 5761 5762 5761 5760 5760 5759 5758 5759 5759 5759 5759 5757 5754 5751 5748 5746 5744 5742 5738 5736 5733 5731 5731 5730 5731 5730 5729 5727 5726 5724 5722 5721 5720 5718 5717 5716 5714 5711 5710 5710
5737 5731 5732 5741 5752 5748 5740 5741 5750 5754 5756 5758 5756 5756 5755 5753 5752 5751 5752 5751 5750 5746 5744 5742 5740 5739 5738 5736 5733 5731 5729 5727 5727 5727 5727 5726 5725 5723 5722 5720 5718 5717 5716 5714 5713 5712 5709 5707 5707
5735 5730 5733 5734 5741 5743 5737 5732 5739 5747 5751 5753 5753 5753 5752 5751 5748 5746 5745 5745 5744 5740 5737 5737 5735 5734 5733 5732 5729 5726 5724 5723 5721 5721 5722 5722 5721 5720 5719 5718 5716 5715 5714 5712 5711 5710 5707 5704 5703
5728 5743 5740 5736 5725 5715 5725 5705 5726 5734 5738 5742 5744 5745 5745 5746 5745 5742 5741 5740 5738 5736 5733 5732 5730 5729 5729 5727 5725 5722 5719 5716 5717 5717 5718 5718 5717 5716 5715 5715 5714 5712 5712 5710 5709 5708 5706 5704 5700
5738 5745 5738 5732 5720 5710 5712 5702 5710 5725 5727 5733 5738 5741 5741 5742 5741 5739 5738 5735 5733 5731 5728 5726 5725 5723 5722 5722 5720 5719 5716 5714 5714 5713 5713 5713 5713 5712 5711 5711 5710 5710 5709 5708 5707 5705 5704 5702 5700
5744 5734 5724 5711 5703 5691 5703 5697 5701 5714 5724 5730 5735 5737 5737 5737 5736 5734 5732 5729 5726 5724 5722 5720 5719 5716 5716 5715 5715 5713 5711 5710 5708 5708 5708 5708 5708 5708 5707 5707 5706 5706 5705 5705 5704 5703 5701 5700 5698
5733 5711 5690 5688 5677 5682 5700 5696 5700 5722 5728 5730 5731 5732 5732 5732 5730 5726 5724 5722 5719 5717 5715 5714 5714 5711 5710 5709 5708 5708 5707 5706 5704 5704 5703 5702 5702 5702 5703 5703 5702 5702 5702 5701 5701 5700 5698 5698 5696
5722 5712 5687 5676 5672 5679 5693 5691 5706 5725 5729 5731 5730 5728 5727 5725 5723 5721 5719 5716 5714 5712 5710 5709 5707 5705 5704 5704 5703 5703 5702 5701 5700 5700 5699 5698 5698 5698 5699 5699 5698 5698 5698 5698 5697 5696 5695 5695 5694
5715 5706 5707 5686 5680 5674 5680 5692 5708 5722 5723 5723 5722 5722 5720 5719 5717 5714 5712 5710 5707 5705 5704 5702 5700 5699 5699 5698 5698 5697 5697 5696 5695 5695 5695 5694 5694 5694 5694 5694 5694 5694 5694 5693 5693 5693 5692 5691 5690
5721 5707 5691 5680 5668 5666 5677 5684 5690 5706 5711 5714 5715 5715 5714 5713 5711 5709 5706 5704 5703 5701 5698 5697 5694 5693 5693 5693 5692 5692 5691 5691 5690 5690 5689 5689 5689 5689 5689 5689 5689 5689 5689 5689 5688 5688 5688 5687 5686
5708 5700 5687 5675 5675 5665 5663 5678 5707 5707 5709 5709 5710 5710 5709 5707 5705 5704 5702 5700 5698 5695 5694 5691 5688 5687 5687 5686 5686 5685 5685 5685 5684 5684 5684 5684 5684 5684 5684 5684 5684 5684 5684 5684 5684 5684 5684 5683 5682
5711 5701 5687 5677 5670 5666 5663 5676 5712 5709 5708 5706 5706 5705 5704 5702 5700 5699 5696 5694 5691 5689 5687 5686 5683 5681 5681 5680 5680 5679 5679 5678 5678 5677 5678 5678 5678 5678 5679 5679 5680 5680 5679 5679 5680 5679 5679 5679 5678